Location: *
(32.8140°S, 174.6161°E)
Time: 19:31:06
(UTC+00:00)

Resurs 1-4 Rocket - Pass Details

Date: 10 December 2019
Orbit: 799 x 815 km, 98.6° (Epoch: 18 January)

Event Time Altitude Azimuth Distance (km) Brightness Sun altitude
Exits shadow 14:28:46 15° 245° (WSW) 2,044 4.1 -25.7°
Drops below altitude 10° 14:30:21 10° 230° (SW) 2,402 4.6 -25.5°
Sets 14:33:24 0° 212° (SSW) 3,344 5.6 -25.1°
